,,,PA_Meas_PMT16A,,PR_Meas_QMR101_102,,RH_Meas_QMH101,,SR_Meas_QMS101,,TA_Meas_QMH101,,GenWind,,GenWind,
date,time,status,PA,status,PR,status,RH,status,SR,status,TA,status,DirAvg,status,SpdAvg,
2010-02-24, 00:00:04,VALID,1001.4,VALID,0,VALID,87.2523,VALID,0,VALID,24.7941,VALID,153,VALID,1.27695,
2010-02-24, 00:01:04,VALID,1001.4,VALID,0,VALID,87.0311,VALID,0,VALID,24.8332,VALID,151,VALID,1.38945,
2010-02-24, 00:02:04,VALID,1001.4,VALID,0,VALID,86.9853,VALID,0,VALID,24.8527,VALID,153,VALID,1.27266,
2010-02-24, 00:03:04,VALID,1001.37,VALID,0,VALID,86.8632,VALID,0,VALID,24.8917,VALID,154,VALID,0.930078,
2010-02-24, 00:04:04,VALID,1001.32,VALID,0,VALID,86.7793,VALID,0,VALID,24.8917,VALID,147,VALID,1.12422,
2010-02-24, 00:05:04,VALID,1001.33,VALID,0,VALID,86.6801,VALID,0,VALID,24.8917,VALID,137,VALID,0.927344,
2010-02-24, 00:06:04,VALID,1001.3,VALID,0,VALID,86.6267,VALID,0,VALID,24.8722,VALID,138,VALID,0.632422,
2010-02-24, 00:07:04,VALID,1001.32,VALID,0,VALID,86.6343,VALID,0,VALID,24.8722,VALID,131,VALID,1.01836,
2010-02-24, 00:08:04,VALID,1001.33,VALID,0,VALID,86.6954,VALID,0,VALID,24.8332,VALID,129,VALID,0.708203,
2010-02-24, 00:09:04,VALID,1001.28,VALID,0,VALID,86.7869,VALID,0,VALID,24.8136,VALID,122,VALID,0.901953,
2010-02-24, 00:10:04,VALID,1001.29,VALID,0,VALID,86.8022,VALID,0,VALID,24.7941,VALID,117,VALID,0.887109,
2010-02-24, 00:11:04,VALID,1001.27,VALID,0,VALID,87.0463,VALID,0,VALID,24.7746,VALID,90,VALID,0.855078,
2010-02-24, 00:12:04,VALID,1001.27,VALID,0,VALID,87.3286,VALID,0,VALID,24.7551,VALID,70,VALID,0.843359,
2010-02-24, 00:13:04,VALID,1001.24,VALID,0,VALID,87.5041,VALID,0,VALID,24.6965,VALID,62,VALID,1.09102,
2010-02-24, 00:14:04,VALID,1001.22,VALID,0,VALID,88.0534,VALID,0,VALID,24.6575,VALID,59,VALID,1.13828,
2010-02-24, 00:15:04,VALID,1001.21,VALID,0,VALID,88.2518,VALID,0,VALID,24.6184,VALID,53,VALID,1.12852,
2010-02-24, 00:16:04,VALID,1001.16,VALID,0,VALID,88.6867,VALID,0,VALID,24.5599,VALID,33,VALID,1.14023,
2010-02-24, 00:17:04,VALID,1001.16,VALID,0,VALID,88.8698,VALID,0,VALID,24.5209,VALID,33,VALID,0.878906,
2010-02-24, 00:18:04,VALID,1001.14,VALID,0,VALID,89.1368,VALID,0,VALID,24.5013,VALID,39,VALID,0.541797,
2010-02-24, 00:19:04,VALID,1001.13,VALID,0,VALID,89.1597,VALID,0,VALID,24.4818,VALID,39,VALID,0.397656,
2010-02-24, 00:20:04,VALID,1001.14,VALID,0,VALID,89.236,VALID,0,VALID,24.4428,VALID,39,VALID,0.23125,
2010-02-24, 00:21:04,VALID,1001.13,VALID,0,VALID,89.2666,VALID,0,VALID,24.4233,VALID,39,VALID,0,
2010-02-24, 00:22:04,VALID,1001.15,VALID,0,VALID,89.3047,VALID,0,VALID,24.3842,VALID,39,VALID,0,
2010-02-24, 00:23:04,VALID,1001.14,VALID,0,VALID,89.5794,VALID,0,VALID,24.3647,VALID,36,VALID,0,
2010-02-24, 00:24:04,VALID,1001.17,VALID,0,VALID,89.854,VALID,0,VALID,24.3452,VALID,25,VALID,0.833594,
2010-02-24, 00:25:04,VALID,1001.18,VALID,0,VALID,89.9227,VALID,0,VALID,24.3257,VALID,17,VALID,1.02422,
2010-02-24, 00:26:04,VALID,1001.15,VALID,0,VALID,90.0448,VALID,0,VALID,24.2866,VALID,11,VALID,1.10117,
2010-02-24, 00:27:04,VALID,1001.19,VALID,0,VALID,90.1287,VALID,0,VALID,24.2458,VALID,5,VALID,0.971875,
2010-02-24, 00:28:04,VALID,1001.2,VALID,0,VALID,90.2203,VALID,0,VALID,24.2671,VALID,354,VALID,0.957031,
2010-02-24, 00:29:04,VALID,1001.21,VALID,0,VALID,90.3805,VALID,0,VALID,24.2476,VALID,352,VALID,0.633984,
2010-02-24, 00:30:04,VALID,1001.22,VALID,0,VALID,90.4644,VALID,0,VALID,24.2671,VALID,352,VALID,0.416406,
2010-02-24, 00:31:04,VALID,1001.18,VALID,0,VALID,90.5102,VALID,0,VALID,24.2671,VALID,352,VALID,0.325391,
2010-02-24, 00:32:04,VALID,1001.2,VALID,0,VALID,90.5178,VALID,0,VALID,24.2671,VALID,352,VALID,0,
2010-02-24, 00:33:04,VALID,1001.19,VALID,0,VALID,90.5941,VALID,0,VALID,24.2653,VALID,352,VALID,0,
2010-02-24, 00:34:04,VALID,1001.16,VALID,0,VALID,90.5865,VALID,0,VALID,24.2866,VALID,352,VALID,0,
2010-02-24, 00:35:04,VALID,1001.17,VALID,0,VALID,90.6399,VALID,0,VALID,24.3062,VALID,352,VALID,0,
2010-02-24, 00:36:04,VALID,1001.16,VALID,0,VALID,90.6017,VALID,0,VALID,24.3062,VALID,352,VALID,0,
2010-02-24, 00:37:04,VALID,1001.11,VALID,0,VALID,90.617,VALID,0,VALID,24.3062,VALID,352,VALID,0,
2010-02-24, 00:38:04,VALID,1001.11,VALID,0,VALID,90.5788,VALID,0,VALID,24.3043,VALID,352,VALID,0,
2010-02-24, 00:39:04,VALID,1001.09,VALID,0,VALID,90.5636,VALID,0,VALID,24.3452,VALID,352,VALID,0,
2010-02-24, 00:40:04,VALID,1001.07,VALID,0,VALID,90.5788,VALID,0,VALID,24.3257,VALID,352,VALID,0,
2010-02-24, 00:41:04,VALID,1001.01,VALID,0,VALID,90.5636,VALID,0,VALID,24.3257,VALID,352,VALID,0,
2010-02-24, 00:42:04,VALID,1000.98,VALID,0,VALID,90.5788,VALID,0,VALID,24.3257,VALID,352,VALID,0,
2010-02-24, 00:43:04,VALID,1000.98,VALID,0,VALID,90.5712,VALID,0,VALID,24.3257,VALID,352,VALID,0,
2010-02-24, 00:44:04,VALID,1000.95,VALID,0,VALID,90.5788,VALID,0,VALID,24.3452,VALID,352,VALID,0,
2010-02-24, 00:45:04,VALID,1000.95,VALID,0,VALID,90.5636,VALID,0,VALID,24.3238,VALID,352,VALID,0,
2010-02-24, 00:46:04,VALID,1000.95,VALID,0,VALID,90.6246,VALID,0,VALID,24.3452,VALID,352,VALID,0,
2010-02-24, 00:47:04,VALID,1000.96,VALID,0,VALID,90.617,VALID,0,VALID,24.3647,VALID,352,VALID,0,
2010-02-24, 00:48:04,VALID,1000.96,VALID,0,VALID,90.6551,VALID,0,VALID,24.3842,VALID,352,VALID,0,
2010-02-24, 00:49:04,VALID,1000.95,VALID,0,VALID,90.6246,VALID,0,VALID,24.3842,VALID,352,VALID,0,
2010-02-24, 00:50:04,VALID,1000.96,VALID,0,VALID,90.6094,VALID,0,VALID,24.3629,VALID,352,VALID,0,
2010-02-24, 00:51:04,VALID,1000.9,VALID,0,VALID,90.6246,VALID,0,VALID,24.3629,VALID,352,VALID,0,
2010-02-24, 00:52:04,VALID,1000.94,VALID,0,VALID,90.6246,VALID,0,VALID,24.3629,VALID,352,VALID,0,
2010-02-24, 00:53:04,VALID,1000.91,VALID,0,VALID,90.6246,VALID,0,VALID,24.3629,VALID,352,VALID,0,
2010-02-24, 00:54:04,VALID,1000.94,VALID,0,VALID,90.617,VALID,0,VALID,24.3629,VALID,352,VALID,0,
2010-02-24, 00:55:04,VALID,1000.93,VALID,0,VALID,90.617,VALID,0,VALID,24.3433,VALID,352,VALID,0,
2010-02-24, 00:56:04,VALID,1000.92,VALID,0,VALID,90.6475,VALID,0,VALID,24.3433,VALID,352,VALID,0,
2010-02-24, 00:57:04,VALID,1000.92,VALID,0,VALID,90.6933,VALID,0,VALID,24.3647,VALID,352,VALID,0,
2010-02-24, 00:58:04,VALID,1000.9,VALID,0,VALID,90.678,VALID,0,VALID,24.3043,VALID,352,VALID,0,
2010-02-24, 00:59:04,VALID,1000.91,VALID,0,VALID,90.7314,VALID,0,VALID,24.3257,VALID,352,VALID,0,
2010-02-24, 01:00:04,VALID,1000.91,VALID,0,VALID,90.7543,VALID,0,VALID,24.3257,VALID,352,VALID,0,
2010-02-24, 01:01:04,VALID,1000.9,VALID,0,VALID,90.7772,VALID,0,VALID,24.2848,VALID,352,VALID,0,
2010-02-24, 01:02:04,VALID,1000.91,VALID,0,VALID,90.8306,VALID,0,VALID,24.3257,VALID,352,VALID,0,
2010-02-24, 01:03:04,VALID,1000.91,VALID,0,VALID,90.8611,VALID,0,VALID,24.3043,VALID,6,VALID,0,
2010-02-24, 01:04:04,VALID,1000.89,VALID,0,VALID,90.8459,VALID,0,VALID,24.2848,VALID,5,VALID,0,
2010-02-24, 01:05:04,VALID,1000.9,VALID,0,VALID,90.8077,VALID,0,VALID,24.2848,VALID,9,VALID,0,
2010-02-24, 01:06:04,VALID,1000.9,VALID,0,VALID,90.7925,VALID,0,VALID,24.2866,VALID,13,VALID,0.0640625,
2010-02-24, 01:07:04,VALID,1000.87,VALID,0,VALID,90.7772,VALID,0,VALID,24.3062,VALID,22,VALID,0.710938,
2010-02-24, 01:08:04,VALID,1000.84,VALID,0,VALID,90.7238,VALID,0,VALID,24.3062,VALID,22,VALID,0.720312,
2010-02-24, 01:09:04,VALID,1000.82,VALID,0,VALID,90.6857,VALID,0,VALID,24.2848,VALID,22,VALID,0.679297,
2010-02-24, 01:10:04,VALID,1000.8,VALID,0,VALID,90.6551,VALID,0,VALID,24.3062,VALID,24,VALID,0.674219,
2010-02-24, 01:11:04,VALID,1000.79,VALID,0,VALID,90.6475,VALID,0,VALID,24.3062,VALID,22,VALID,0.7,
2010-02-24, 01:12:04,VALID,1000.77,VALID,0,VALID,90.6323,VALID,0,VALID,24.2653,VALID,22,VALID,0.673828,
2010-02-24, 01:13:04,VALID,1000.76,VALID,0,VALID,90.617,VALID,0,VALID,24.2653,VALID,23,VALID,0.819531,
2010-02-24, 01:14:04,VALID,1000.78,VALID,0,VALID,90.6399,VALID,0,VALID,24.2653,VALID,22,VALID,0.782422,
2010-02-24, 01:15:04,VALID,1000.78,VALID,0,VALID,90.617,VALID,0,VALID,24.2671,VALID,22,VALID,0.927344,
2010-02-24, 01:16:04,VALID,1000.78,VALID,0,VALID,90.6246,VALID,0.112286,VALID,24.2458,VALID,22,VALID,0.865234,
2010-02-24, 01:17:04,VALID,1000.79,VALID,0,VALID,90.6475,VALID,0,VALID,24.2476,VALID,23,VALID,0.676562,
2010-02-24, 01:18:04,VALID,1000.77,VALID,0,VALID,90.678,VALID,0,VALID,24.2671,VALID,23,VALID,0.521484,
2010-02-24, 01:19:04,VALID,1000.82,VALID,0,VALID,90.7467,VALID,0,VALID,24.2671,VALID,15,VALID,0.850391,
2010-02-24, 01:20:04,VALID,1000.77,VALID,0,VALID,90.762,VALID,0,VALID,24.2476,VALID,15,VALID,0.764453,
2010-02-24, 01:21:04,VALID,1000.81,VALID,0,VALID,90.762,VALID,0,VALID,24.2671,VALID,16,VALID,0.457422,
2010-02-24, 01:22:04,VALID,1000.81,VALID,0,VALID,90.8077,VALID,0,VALID,24.2671,VALID,16,VALID,0.395703,
2010-02-24, 01:23:04,VALID,1000.81,VALID,0,VALID,90.823,VALID,0,VALID,24.2476,VALID,15,VALID,0.395312,
2010-02-24, 01:24:04,VALID,1000.78,VALID,0,VALID,90.8764,VALID,0,VALID,24.2476,VALID,1,VALID,0.433594,
2010-02-24, 01:25:04,VALID,1000.77,VALID,0,VALID,90.8688,VALID,0,VALID,24.2476,VALID,1,VALID,0.584766,
2010-02-24, 01:26:04,VALID,1000.74,VALID,0,VALID,90.8764,VALID,0,VALID,24.2476,VALID,7,VALID,0.533203,
2010-02-24, 01:27:04,VALID,1000.71,VALID,0,VALID,90.8459,VALID,0,VALID,24.2458,VALID,16,VALID,0.728125,
2010-02-24, 01:28:04,VALID,1000.7,VALID,0,VALID,90.8611,VALID,0,VALID,24.2263,VALID,16,VALID,0.384375,
2010-02-24, 01:29:04,VALID,1000.68,VALID,0,VALID,90.8306,VALID,0,VALID,24.2281,VALID,16,VALID,0,
2010-02-24, 01:30:04,VALID,1000.64,VALID,0,VALID,90.8535,VALID,0,VALID,24.2281,VALID,16,VALID,0,
2010-02-24, 01:31:04,VALID,1000.62,VALID,0,VALID,90.8688,VALID,0,VALID,24.2281,VALID,16,VALID,0,
2010-02-24, 01:32:04,VALID,1000.59,VALID,0,VALID,90.8764,VALID,0,VALID,24.2281,VALID,16,VALID,0,
2010-02-24, 01:33:04,VALID,1000.57,VALID,0,VALID,90.9146,VALID,0,VALID,24.2281,VALID,16,VALID,0,
2010-02-24, 01:34:04,VALID,1000.57,VALID,0,VALID,90.9222,VALID,0,VALID,24.2281,VALID,16,VALID,0,
2010-02-24, 01:35:04,VALID,1000.52,VALID,0,VALID,90.884,VALID,0,VALID,24.2067,VALID,16,VALID,0,
2010-02-24, 01:36:04,VALID,1000.53,VALID,0,VALID,90.8306,VALID,0,VALID,24.2067,VALID,16,VALID,0,
2010-02-24, 01:37:04,VALID,1000.51,VALID,0,VALID,90.8459,VALID,0,VALID,24.2067,VALID,16,VALID,0,
2010-02-24, 01:38:04,VALID,1000.51,VALID,0,VALID,90.823,VALID,0,VALID,24.2086,VALID,16,VALID,0,
2010-02-24, 01:39:04,VALID,1000.51,VALID,0,VALID,90.823,VALID,0,VALID,24.2086,VALID,16,VALID,0,
2010-02-24, 01:40:04,VALID,1000.5,VALID,0,VALID,90.8688,VALID,0,VALID,24.2086,VALID,16,VALID,0,
2010-02-24, 01:41:04,VALID,1000.48,VALID,0,VALID,90.9527,VALID,0,VALID,24.2086,VALID,16,VALID,0,
2010-02-24, 01:42:04,VALID,1000.5,VALID,0,VALID,90.9069,VALID,0,VALID,24.2086,VALID,16,VALID,0.101563,
2010-02-24, 01:43:04,VALID,1000.47,VALID,0,VALID,90.8611,VALID,0,VALID,24.1872,VALID,16,VALID,0,
2010-02-24, 01:44:04,VALID,1000.45,VALID,0,VALID,90.9146,VALID,0,VALID,24.2281,VALID,119,VALID,0,
2010-02-24, 01:45:04,VALID,1000.44,VALID,0,VALID,90.8154,VALID,0,VALID,24.2281,VALID,120,VALID,0,
2010-02-24, 01:46:04,VALID,1000.4,VALID,0,VALID,90.8688,VALID,0,VALID,24.2476,VALID,133,VALID,0,
2010-02-24, 01:47:04,VALID,1000.4,VALID,0,VALID,90.8688,VALID,0,VALID,24.2671,VALID,139,VALID,0,
2010-02-24, 01:48:04,VALID,1000.39,VALID,0,VALID,90.7696,VALID,0,VALID,24.2671,VALID,141,VALID,0,
2010-02-24, 01:49:04,VALID,1000.36,VALID,0,VALID,90.7238,VALID,0,VALID,24.3062,VALID,138,VALID,1.075,
2010-02-24, 01:50:04,VALID,1000.34,VALID,0,VALID,90.6475,VALID,0,VALID,24.3452,VALID,135,VALID,1.02539,
2010-02-24, 01:51:04,VALID,1000.34,VALID,0,VALID,90.6094,VALID,0,VALID,24.3452,VALID,133,VALID,1.1668,
2010-02-24, 01:52:04,VALID,1000.36,VALID,0,VALID,90.5483,VALID,0,VALID,24.3452,VALID,131,VALID,1.07305,
2010-02-24, 01:53:04,VALID,1000.35,VALID,0,VALID,90.5483,VALID,0,VALID,24.3433,VALID,127,VALID,1.12734,
2010-02-24, 01:54:04,VALID,1000.34,VALID,0,VALID,90.5102,VALID,0,VALID,24.3629,VALID,117,VALID,1.19922,
2010-02-24, 01:55:04,VALID,1000.34,VALID,0,VALID,90.4873,VALID,0,VALID,24.3842,VALID,122,VALID,0.841406,
2010-02-24, 01:56:04,VALID,1000.29,VALID,0,VALID,90.472,VALID,0,VALID,24.3842,VALID,122,VALID,0.689453,
2010-02-24, 01:57:04,VALID,1000.31,VALID,0,VALID,90.4797,VALID,0,VALID,24.3647,VALID,122,VALID,0.761328,
2010-02-24, 01:58:04,VALID,1000.31,VALID,0,VALID,90.5178,VALID,0,VALID,24.3647,VALID,123,VALID,0.591016,
2010-02-24, 01:59:04,VALID,1000.3,VALID,0,VALID,90.556,VALID,0,VALID,24.3647,VALID,123,VALID,0.661328,
2010-02-24, 02:00:04,VALID,1000.3,VALID,0,VALID,90.5178,VALID,0,VALID,24.3452,VALID,124,VALID,0.518359,
2010-02-24, 02:01:04,VALID,1000.28,VALID,0,VALID,90.5712,VALID,0,VALID,24.3452,VALID,124,VALID,0.670703,
2010-02-24, 02:02:04,VALID,1000.27,VALID,0,VALID,90.556,VALID,0,VALID,24.3452,VALID,124,VALID,0.482422,
2010-02-24, 02:03:04,VALID,1000.24,VALID,0,VALID,90.5865,VALID,0,VALID,24.3452,VALID,124,VALID,0,
2010-02-24, 02:04:04,VALID,1000.21,VALID,0,VALID,90.5407,VALID,0,VALID,24.3257,VALID,124,VALID,0,
2010-02-24, 02:05:04,VALID,1000.21,VALID,0,VALID,90.5483,VALID,0,VALID,24.3257,VALID,124,VALID,0,
2010-02-24, 02:06:04,VALID,1000.18,VALID,0,VALID,90.5636,VALID,0,VALID,24.3452,VALID,124,VALID,0,
2010-02-24, 02:07:04,VALID,1000.17,VALID,0,VALID,90.5712,VALID,0,VALID,24.3257,VALID,124,VALID,0,
2010-02-24, 02:08:04,VALID,1000.14,VALID,0,VALID,90.556,VALID,0,VALID,24.3043,VALID,124,VALID,0,
2010-02-24, 02:09:04,VALID,1000.11,VALID,0,VALID,90.5636,VALID,0,VALID,24.3062,VALID,124,VALID,0,
2010-02-24, 02:10:04,VALID,1000.07,VALID,0,VALID,90.617,VALID,0,VALID,24.3062,VALID,124,VALID,0,
2010-02-24, 02:11:04,VALID,1000.09,VALID,0,VALID,90.6933,VALID,0,VALID,24.2866,VALID,124,VALID,0,
2010-02-24, 02:12:04,VALID,1000.07,VALID,0,VALID,90.7849,VALID,0,VALID,24.3062,VALID,124,VALID,0,
2010-02-24, 02:13:04,VALID,1000.06,VALID,0,VALID,90.7238,VALID,0,VALID,24.3062,VALID,124,VALID,0,
2010-02-24, 02:14:04,VALID,1000.05,VALID,0,VALID,90.678,VALID,0,VALID,24.3062,VALID,124,VALID,0,
2010-02-24, 02:15:04,VALID,1000.08,VALID,0,VALID,90.6704,VALID,0,VALID,24.2866,VALID,124,VALID,0,
2010-02-24, 02:16:04,VALID,1000.04,VALID,0,VALID,90.762,VALID,0,VALID,24.3062,VALID,124,VALID,0,
2010-02-24, 02:17:04,VALID,1000.08,VALID,0,VALID,90.8001,VALID,0,VALID,24.3062,VALID,124,VALID,0,
2010-02-24, 02:18:04,VALID,1000.06,VALID,0,VALID,90.7391,VALID,0,VALID,24.3062,VALID,124,VALID,0,
2010-02-24, 02:19:04,VALID,1000.06,VALID,0,VALID,90.7009,VALID,0,VALID,24.2866,VALID,124,VALID,0,
2010-02-24, 02:20:04,VALID,1000.03,VALID,0,VALID,90.7925,VALID,0,VALID,24.2866,VALID,124,VALID,0,
2010-02-24, 02:21:04,VALID,1000.04,VALID,0,VALID,90.823,VALID,0,VALID,24.2866,VALID,105,VALID,0.417188,
2010-02-24, 02:22:04,VALID,1000.05,VALID,0,VALID,90.7085,VALID,0,VALID,24.2458,VALID,63,VALID,0.621484,
2010-02-24, 02:23:04,VALID,1000.06,VALID,0,VALID,90.617,VALID,0,VALID,24.2476,VALID,46,VALID,0.698047,
2010-02-24, 02:24:04,VALID,1000.03,VALID,0,VALID,90.7543,VALID,0,VALID,24.2281,VALID,39,VALID,0.763281,
2010-02-24, 02:25:04,VALID,1000.06,VALID,0,VALID,90.8917,VALID,0,VALID,24.1891,VALID,39,VALID,0.753516,
2010-02-24, 02:26:04,VALID,1000.06,VALID,0,VALID,90.8764,VALID,0,VALID,24.1696,VALID,39,VALID,0.807813,
2010-02-24, 02:27:04,VALID,1000.1,VALID,0,VALID,91.0214,VALID,0,VALID,24.1305,VALID,40,VALID,0.959375,
2010-02-24, 02:28:04,VALID,1000.12,VALID,0,VALID,91.2121,VALID,0,VALID,24.1305,VALID,44,VALID,0.966016,
2010-02-24, 02:29:04,VALID,1000.13,VALID,0,VALID,91.2426,VALID,0,VALID,24.15,VALID,45,VALID,0.939844,
2010-02-24, 02:30:04,VALID,1000.15,VALID,0,VALID,91.296,VALID,0,VALID,24.1305,VALID,43,VALID,0.9375,
2010-02-24, 02:31:04,VALID,1000.17,VALID,0,VALID,91.296,VALID,0,VALID,24.1305,VALID,39,VALID,0.954297,
2010-02-24, 02:32:04,VALID,1000.18,VALID,0,VALID,91.3189,VALID,0,VALID,24.1305,VALID,32,VALID,0.794531,
2010-02-24, 02:33:04,VALID,1000.22,VALID,0,VALID,91.3037,VALID,0,VALID,24.1305,VALID,31,VALID,0.682031,
2010-02-24, 02:34:04,VALID,1000.24,VALID,0,VALID,91.3113,VALID,0,VALID,24.111,VALID,31,VALID,0.650391,
2010-02-24, 02:35:04,VALID,1000.26,VALID,0,VALID,91.3418,VALID,0,VALID,24.0915,VALID,21,VALID,0.696484,
2010-02-24, 02:36:04,VALID,1000.25,VALID,0,VALID,91.4563,VALID,0,VALID,24.111,VALID,14,VALID,0.825781,
2010-02-24, 02:37:04,VALID,1000.27,VALID,0,VALID,91.4563,VALID,0,VALID,24.111,VALID,13,VALID,0.371484,
2010-02-24, 02:38:04,VALID,1000.26,VALID,0,VALID,91.441,VALID,0,VALID,24.111,VALID,13,VALID,0.275,
2010-02-24, 02:39:04,VALID,1000.3,VALID,0,VALID,91.5402,VALID,0,VALID,24.1305,VALID,9,VALID,0,
2010-02-24, 02:40:04,VALID,1000.28,VALID,0,VALID,91.5402,VALID,0,VALID,24.1287,VALID,9,VALID,0,
2010-02-24, 02:41:04,VALID,1000.28,VALID,0,VALID,91.5707,VALID,0,VALID,24.1482,VALID,9,VALID,0,
2010-02-24, 02:42:04,VALID,1000.28,VALID,0,VALID,91.5783,VALID,0,VALID,24.1482,VALID,9,VALID,0,
2010-02-24, 02:43:04,VALID,1000.28,VALID,0,VALID,91.5478,VALID,0,VALID,24.1696,VALID,9,VALID,0,
2010-02-24, 02:44:04,VALID,1000.3,VALID,0,VALID,91.5554,VALID,0,VALID,24.1482,VALID,9,VALID,0,
2010-02-24, 02:45:04,VALID,1000.27,VALID,0,VALID,91.5249,VALID,0,VALID,24.1677,VALID,9,VALID,0,
2010-02-24, 02:46:04,VALID,1000.29,VALID,0,VALID,91.5097,VALID,0,VALID,24.1482,VALID,9,VALID,0,
2010-02-24, 02:47:04,VALID,1000.25,VALID,0,VALID,91.4868,VALID,0,VALID,24.1891,VALID,9,VALID,0,
2010-02-24, 02:48:04,VALID,1000.25,VALID,0,VALID,91.4868,VALID,0,VALID,24.1891,VALID,9,VALID,0,
2010-02-24, 02:49:04,VALID,1000.24,VALID,0,VALID,91.4563,VALID,0,VALID,24.1696,VALID,9,VALID,0,
2010-02-24, 02:50:04,VALID,1000.18,VALID,0,VALID,91.4639,VALID,0,VALID,24.1696,VALID,18,VALID,0,
2010-02-24, 02:51:04,VALID,1000.18,VALID,0,VALID,91.4105,VALID,0,VALID,24.15,VALID,76,VALID,0.870703,
2010-02-24, 02:52:04,VALID,1000.11,VALID,0,VALID,91.3494,VALID,0,VALID,24.1305,VALID,79,VALID,0.83125,
2010-02-24, 02:53:04,VALID,1000.11,VALID,0,VALID,91.4105,VALID,0,VALID,24.111,VALID,94,VALID,0.651172,
2010-02-24, 02:54:04,VALID,1000.1,VALID,0,VALID,91.5402,VALID,0,VALID,24.111,VALID,99,VALID,1.12695,
2010-02-24, 02:55:04,VALID,1000.05,VALID,0,VALID,91.5783,VALID,0,VALID,24.1305,VALID,101,VALID,1.10273,
2010-02-24, 02:56:04,VALID,1000.06,VALID,0,VALID,91.5783,VALID,0,VALID,24.1092,VALID,101,VALID,0.683594,
2010-02-24, 02:57:04,VALID,1000.05,VALID,0,VALID,91.5326,VALID,0,VALID,24.111,VALID,101,VALID,0.780469,
2010-02-24, 02:58:04,VALID,1000.07,VALID,0,VALID,91.4868,VALID,0,VALID,24.0915,VALID,99,VALID,0.634766,
2010-02-24, 02:59:04,VALID,1000.03,VALID,0,VALID,91.4715,VALID,0,VALID,24.0525,VALID,99,VALID,0.545313,
2010-02-24, 03:00:04,VALID,1000.05,VALID,0,VALID,91.502,VALID,0,VALID,24.0116,VALID,92,VALID,0.607422,
2010-02-24, 03:01:04,VALID,1000.07,VALID,0,VALID,91.5402,VALID,0,VALID,24.0329,VALID,90,VALID,0.349219,
2010-02-24, 03:02:04,VALID,1000.03,VALID,0,VALID,91.6088,VALID,0,VALID,24.0134,VALID,90,VALID,0.0183594,
2010-02-24, 03:03:04,VALID,1000.04,VALID,0,VALID,91.5936,VALID,0,VALID,23.9726,VALID,90,VALID,0,
2010-02-24, 03:04:04,VALID,1000.04,VALID,0,VALID,91.6623,VALID,0,VALID,23.9939,VALID,90,VALID,0.0515625,
2010-02-24, 03:05:04,VALID,1000.05,VALID,0,VALID,91.6928,VALID,0,VALID,23.9726,VALID,90,VALID,0,
2010-02-24, 03:06:04,VALID,1000.03,VALID,0,VALID,91.7309,VALID,0,VALID,23.9744,VALID,90,VALID,0,
2010-02-24, 03:07:04,VALID,1000.02,VALID,0,VALID,91.7767,VALID,0,VALID,23.9744,VALID,90,VALID,0,
2010-02-24, 03:08:04,VALID,999.995,VALID,0,VALID,91.853,VALID,0,VALID,23.9939,VALID,90,VALID,0,
2010-02-24, 03:09:04,VALID,999.996,VALID,0,VALID,91.9217,VALID,0,VALID,24.0134,VALID,132,VALID,0,
2010-02-24, 03:10:04,VALID,1000.02,VALID,0,VALID,91.9751,VALID,0,VALID,24.0116,VALID,136,VALID,0,
2010-02-24, 03:11:04,VALID,1000,VALID,0,VALID,92.0056,VALID,0,VALID,24.0525,VALID,136,VALID,0,
2010-02-24, 03:12:04,VALID,1000,VALID,0,VALID,91.9903,VALID,0,VALID,24.0525,VALID,145,VALID,0,
2010-02-24, 03:13:04,VALID,1000.01,VALID,0,VALID,92.0514,VALID,0,VALID,24.0311,VALID,144,VALID,0,
2010-02-24, 03:14:04,VALID,1000.03,VALID,0,VALID,91.9522,VALID,0,VALID,24.0525,VALID,144,VALID,0,
2010-02-24, 03:15:04,VALID,1000.06,VALID,0,VALID,91.8988,VALID,0,VALID,24.0329,VALID,144,VALID,0,
2010-02-24, 03:16:04,VALID,1000.09,VALID,0,VALID,91.9369,VALID,0,VALID,24.0134,VALID,144,VALID,0,
2010-02-24, 03:17:04,VALID,1000.07,VALID,0,VALID,91.8225,VALID,0,VALID,23.9939,VALID,144,VALID,0.196094,
2010-02-24, 03:18:04,VALID,1000.07,VALID,0,VALID,91.7004,VALID,0,VALID,23.9354,VALID,144,VALID,0.485156,
2010-02-24, 03:19:04,VALID,1000.04,VALID,0,VALID,91.8454,VALID,0,VALID,23.9159,VALID,144,VALID,0.200391,
2010-02-24, 03:20:04,VALID,1000.03,VALID,0,VALID,91.9217,VALID,0,VALID,23.9159,VALID,144,VALID,0.228516,
2010-02-24, 03:21:04,VALID,1000.03,VALID,0,VALID,91.9522,VALID,0,VALID,23.875,VALID,144,VALID,0,
2010-02-24, 03:22:04,VALID,1000.07,VALID,0,VALID,91.998,VALID,0,VALID,23.8768,VALID,144,VALID,0,
2010-02-24, 03:23:04,VALID,1000.03,VALID,0,VALID,91.9903,VALID,0,VALID,23.8768,VALID,144,VALID,0,
2010-02-24, 03:24:04,VALID,1000.02,VALID,0,VALID,91.9903,VALID,0,VALID,23.8573,VALID,144,VALID,0,
2010-02-24, 03:25:04,VALID,1000.02,VALID,0,VALID,91.9751,VALID,0,VALID,23.8378,VALID,144,VALID,0,
2010-02-24, 03:26:04,VALID,1000,VALID,0,VALID,92.0437,VALID,0,VALID,23.8378,VALID,144,VALID,0,
2010-02-24, 03:27:04,VALID,1000.01,VALID,0,VALID,91.998,VALID,0,VALID,23.7775,VALID,144,VALID,0,
2010-02-24, 03:28:04,VALID,999.996,VALID,0,VALID,92.1887,VALID,0,VALID,23.8183,VALID,143,VALID,0,
2010-02-24, 03:29:04,VALID,1000.02,VALID,0,VALID,92.3871,VALID,0,VALID,23.8573,VALID,142,VALID,0,
2010-02-24, 03:30:04,VALID,999.974,VALID,0,VALID,92.2955,VALID,0,VALID,23.8768,VALID,140,VALID,0,
2010-02-24, 03:31:04,VALID,999.994,VALID,0,VALID,92.0971,VALID,0,VALID,23.8183,VALID,140,VALID,0,
2010-02-24, 03:32:04,VALID,999.975,VALID,0,VALID,92.0437,VALID,0,VALID,23.7988,VALID,140,VALID,0.442969,
2010-02-24, 03:33:04,VALID,999.999,VALID,0,VALID,92.0743,VALID,0,VALID,23.7793,VALID,146,VALID,0.553125,
2010-02-24, 03:34:04,VALID,999.996,VALID,0,VALID,92.3184,VALID,0,VALID,23.8378,VALID,157,VALID,0.703906,
2010-02-24, 03:35:04,VALID,999.997,VALID,0,VALID,92.3718,VALID,0,VALID,23.8555,VALID,156,VALID,0.798828,
2010-02-24, 03:36:04,VALID,1000,VALID,0,VALID,92.3489,VALID,0,VALID,23.9159,VALID,156,VALID,0.603125,
2010-02-24, 03:37:04,VALID,1000.03,VALID,0,VALID,92.3337,VALID,0,VALID,23.9354,VALID,156,VALID,0.558594,
2010-02-24, 03:38:04,VALID,1000.01,VALID,0,VALID,92.2497,VALID,0,VALID,23.9336,VALID,148,VALID,0.593359,
2010-02-24, 03:39:04,VALID,1000.01,VALID,0,VALID,92.0819,VALID,0,VALID,23.9354,VALID,148,VALID,0.657422,
2010-02-24, 03:40:04,VALID,1000.01,VALID,0,VALID,92.0209,VALID,0,VALID,23.914,VALID,148,VALID,0.641406,
2010-02-24, 03:41:04,VALID,1000.01,VALID,0,VALID,91.9445,VALID,0,VALID,23.9354,VALID,148,VALID,0.823828,
2010-02-24, 03:42:04,VALID,1000,VALID,0,VALID,92.1582,VALID,0,VALID,23.9744,VALID,148,VALID,0.942187,
2010-02-24, 03:43:04,VALID,1000,VALID,0,VALID,92.1658,VALID,0,VALID,24.0134,VALID,147,VALID,0.85625,
2010-02-24, 03:44:04,VALID,999.974,VALID,0,VALID,92.0514,VALID,0,VALID,24.0134,VALID,147,VALID,0.424219,
2010-02-24, 03:45:04,VALID,1000,VALID,0,VALID,91.8988,VALID,0,VALID,23.9939,VALID,146,VALID,0.280859,
2010-02-24, 03:46:04,VALID,1000.01,VALID,0,VALID,91.9522,VALID,0,VALID,23.9744,VALID,147,VALID,0.443359,
2010-02-24, 03:47:04,VALID,1000.03,VALID,0,VALID,91.9217,VALID,0,VALID,23.9744,VALID,136,VALID,0.203516,
2010-02-24, 03:48:04,VALID,1000.01,VALID,0,VALID,91.8148,VALID,0,VALID,23.9762,VALID,136,VALID,0.00195313,
2010-02-24, 03:49:04,VALID,1000.03,VALID,0,VALID,91.8301,VALID,0,VALID,23.9354,VALID,136,VALID,0,
2010-02-24, 03:50:04,VALID,1000.03,VALID,0,VALID,91.7767,VALID,0,VALID,23.9159,VALID,136,VALID,0,
2010-02-24, 03:51:04,VALID,1000.02,VALID,0,VALID,91.7385,VALID,0,VALID,23.8573,VALID,136,VALID,0,
2010-02-24, 03:52:04,VALID,1000.01,VALID,0,VALID,91.7767,VALID,0,VALID,23.8378,VALID,136,VALID,0,
2010-02-24, 03:53:04,VALID,1000,VALID,0,VALID,91.8301,VALID,0,VALID,23.8378,VALID,136,VALID,0,